Location: Bright Sky Observatory
(40.7821°N, 74.2425°W)
Time: 02:57:07
(UTC-04:00)

Daily predictions for brighter satellites

Satellite Brightness Start Highest point End
(mag) Time Altitude Azimuth Time Altitude Azimuth Time Altitude Azimuth
USA 238 DEB 4.1 00:08:44 10° NNW 00:15:41 55° NE 00:15:57 55° ENE
USA 238 4.1 00:08:50 10° NNW 00:15:47 54° NE 00:16:04 54° ENE
Cosmos 2369 Rocket 3.3 00:21:14 10° NNW 00:25:25 39° NNE 00:25:25 39° NNE
Nadezhda 1 Rocket 4.5 00:30:43 55° NNE 00:30:43 55° NNE 00:35:32 10° N
Cosmos 1943 Rocket 3.8 00:25:26 10° N 00:29:59 26° NE 00:29:59 26° NE
CZ-4C R/B 4.4 00:25:03 10° WNW 00:29:38 23° W 00:29:38 23° W
ATLAS CENTAUR R/B 4.3 00:45:52 14° NW 00:45:52 14° NW 00:47:31 10° N
SL-16 R/B 4.1 00:49:41 21° WNW 00:50:33 22° NW 00:54:57 10° N
CZ-2C R/B 3.8 01:03:24 10° N 01:07:21 39° NW 01:07:21 39° NW
NOSS 3-4 (A) 4.4 01:15:41 39° ENE 01:15:41 39° ENE 01:19:58 10° NE
NOSS 3-4 (C) 4.5 01:15:48 39° ENE 01:15:48 39° ENE 01:20:04 10° NE
ATLAS 2AS CENTAUR R/B 4.0 01:11:16 30° W 01:14:14 40° NW 01:21:49 10° NNE
Cosmos 2341 Rocket 4.4 01:12:59 10° N 01:17:52 58° NNW 01:17:52 58° NNW
NOSS 3-2 (A) 4.0 01:18:37 10° NNW 01:26:10 77° NE 01:26:33 75° E
ATLAS 3B R/B 4.2 01:33:29 10° NW 01:36:24 23° WNW 01:36:24 23° WNW
BREEZE M DEB (TANK) 4.4 01:13:15 10° WNW 01:40:21 87° SW 01:42:19 60° SE
Cosmos 1943 4.2 01:43:36 39° NNW 01:43:36 39° NNW 01:47:55 10° NNE
COSMOS 2455 3.2 01:52:07 10° NNW 01:57:37 61° NNE 01:57:37 61° NNE
Cosmos 2369 Rocket 4.3 02:05:48 10° NW 02:07:11 16° WNW 02:07:11 16° WNW
Cosmos 2366 rocket 4.2 02:06:23 10° NNW 02:11:42 62° NW 02:11:42 62° NW
Cosmos 1943 Rocket 3.6 02:08:44 10° NW 02:11:29 27° NW 02:11:29 27° NW
Cosmos 2218 Rocket 4.4 02:08:23 10° NNW 02:13:20 52° NW 02:13:20 52° NW
USA 215 3.1 02:09:38 10° NE 02:16:03 81° ESE 02:16:03 81° ESE
SL-16 R/B 3.8 02:26:01 19° ESE 02:29:38 36° ENE 02:35:09 10° N
Cosmos 921 Rocket 4.5 02:28:54 10° N 02:32:59 35° ENE 02:32:59 35° ENE
CENTAUR R/B 3.4 02:27:38 10° NNW 02:35:28 64° NE 02:43:49 10° SE
Cosmos 2056 Rocket 4.0 02:32:23 10° N 02:37:37 54° ENE 02:38:00 53° E
NOSS 3-2 (C) 4.2 02:31:25 10° NW 02:37:54 51° W 02:37:54 51° W
Cosmos 1680 Rocket 4.2 02:41:13 46° NW 02:41:13 46° NW 02:45:31 10° N
CBERS-1 4.2 02:41:22 10° NNE 02:46:05 69° ENE 02:46:05 69° ENE
Lacrosse 5 rocket 2.3 02:47:41 52° NNE 02:47:41 52° NNE 02:51:17 10° NE
USA 267 4.2 02:42:04 10° E 02:48:12 45° NNE 02:54:23 10° NW
IRS-P3 4.1 02:43:26 10° NNE 02:48:28 80° N 02:48:28 80° N
COSMOS 2406 3.3 02:51:03 63° WNW 02:51:03 63° WNW 02:56:40 10° NNE
SL-08 R/B 3.7 02:53:05 60° N 02:53:05 60° N 02:57:01 10° NNW
Nadezhda 3 Rocket 4.0 03:01:28 60° W 03:01:50 61° W 03:08:07 10° N
NOSS 2-2 (D) 4.0 03:04:06 58° NNE 03:04:06 58° NNE 03:07:52 10° NE
Meteor 2-8 Rocket 4.3 03:04:53 68° WSW 03:05:24 72° W 03:11:34 10° N
IRS-1D 4.1 03:00:23 10° NNE 03:05:31 52° E 03:06:29 46° SE
DNEPR-1 R/B 4.4 03:03:14 10° NNW 03:07:20 46° NE 03:10:11 19° ESE
Cosmos 1953 Rocket 3.8 03:08:43 67° ENE 03:08:43 67° ENE 03:12:51 10° NNE
ARIANE 5 R/B 3.1 03:03:31 10° NNE 03:08:37 51° E 03:09:38 44° SE
Resurs 1-4 Rocket 2.5 03:04:19 10° NNE 03:09:29 55° E 03:10:30 47° SE
Cosmos 1452 Rocket 4.5 03:07:10 10° N 03:12:13 45° ENE 03:16:58 11° SE
Cosmos 1371 Rocket 4.5 03:08:36 10° NNW 03:12:50 47° WNW 03:12:50 47° WNW
ADEOS 3.8 03:10:56 10° NNE 03:16:07 62° ESE 03:17:11 50° SSE
RESURS DK-1 4.3 03:20:16 20° NW 03:20:16 20° NW 03:22:48 10° N
NOSS 2-2 (C) 3.9 03:21:59 55° NW 03:21:59 55° NW 03:26:16 10° NNE
Cosmos 1470 3.2 03:20:57 10° N 03:24:48 55° E 03:25:00 54° E
Cosmos 839 Rocket 4.2 03:21:22 10° NNW 03:27:47 87° ENE 03:35:25 10° SSE
Cosmos 1825 Rocket 4.1 03:28:52 45° NW 03:28:52 45° NW 03:32:32 10° N
NPP 4.1 03:23:23 10° N 03:28:28 43° WNW 03:28:55 42° W
Cosmos 1727 Rocket 4.3 03:26:46 31° SSE 03:29:45 64° E 03:35:51 10° NNE
UNK 3.5 03:31:16 75° SSW 03:31:33 79° WSW 03:36:09 10° NNW
CZ-2D R/B 2.0 03:28:24 10° NNE 03:33:42 90° E 03:34:59 53° SSW
Cosmos 1697 Rocket 4.2 03:33:14 10° N 03:38:24 36° ENE 03:43:31 10° SE
COSMOS 2487 2.7 03:39:06 68° ENE 03:39:06 68° ENE 03:42:22 10° NNE
Cosmos 1733 3.1 03:37:41 10° N 03:41:25 85° N 03:41:25 85° N
UNKNOWN OBJECT B 3.3 03:40:04 10° NNE 03:44:03 57° E 03:45:06 42° SSE
Cosmos 1818 4.1 03:43:32 39° W 03:44:52 46° NW 03:50:08 10° NNE
Cosmos 1821 Rocket 4.4 03:39:13 10° NNW 03:44:53 41° W 03:45:48 39° WSW
Cosmos 1953 3.5 03:42:53 10° NNW 03:45:27 30° NW 03:45:27 30° NW
Cosmos 2278 3.6 03:47:14 10° NNW 03:52:59 87° WSW 03:58:42 10° SSE
Cosmos 1656 3.8 03:53:13 10° NNW 03:58:40 72° ENE 04:04:05 10° SSE
USA 215 4.3 03:52:58 10° NE 03:58:49 36° NNW 04:03:24 16° W
USA 161 2.3 03:58:15 39° ESE 03:58:51 48° ENE 04:01:34 10° N
Cosmos 1934 Rocket 4.5 03:53:35 10° NNW 03:59:27 42° W 04:01:25 33° SW
Cosmos 2369 3.6 03:56:20 10° NNW 04:02:04 75° WSW 04:07:47 10° SSE
COBE Rocket 4.0 03:57:25 10° N 04:02:20 58° WNW 04:03:56 39° SW
GPS 2-05 Rocket1 4.0 04:03:31 30° SSE 04:03:31 30° SSE 04:06:10 10° ESE
Okean O Rocket 3.7 03:59:53 10° NE 04:03:28 24° E 04:07:00 10° SSE
Cosmos 1605 Rocket 4.1 03:59:53 10° NNW 04:05:52 53° W 04:09:04 27° SSW
Cosmos-2242 3.2 04:02:19 10° NNW 04:06:35 51° W 04:07:34 41° SW
GEOS 3 Rocket 3.6 04:01:54 10° NNE 04:07:12 76° NW 04:09:44 32° SW
ADEOS II 3.8 04:03:29 10° NE 04:08:05 30° E 04:12:39 10° SSE
Cosmos 158 Rocket 4.2 04:05:55 24° S 04:08:54 67° ESE 04:14:02 10° NNE
Cosmos 1833 Rocket 2.7 04:05:59 28° SSW 04:09:04 82° ESE 04:14:43 10° NNE
Cosmos 1339 Rocket 4.4 04:06:19 28° SSW 04:09:35 66° W 04:15:42 10° N
ADEOS Rocket 3.5 04:06:36 10° N 04:12:31 48° WNW 04:16:02 26° SW
SL-16 R/B 3.1 04:11:06 29° SW 04:13:11 36° W 04:18:50 10° NNW
Cosmos 1980 Rocket 3.5 04:08:38 10° N 04:14:01 42° ENE 04:19:21 10° SE
Cosmos 2082 Rocket 2.2 04:13:23 27° SSW 04:16:35 81° WNW 04:22:19 10° NNE
Cosmos 389 Rocket 3.8 04:18:55 10° NW 04:21:25 25° WNW 04:21:25 25° WNW
Cosmos 2098 Rocket 4.0 04:20:37 10° NW 04:21:49 18° NW 04:21:49 18° NW
Cosmos 1842 Rocket 3.5 04:18:57 10° N 04:23:23 79° W 04:27:49 10° S
CENTAUR R/B 3.7 04:18:58 10° NW 04:25:55 33° WSW 04:33:09 10° S
Cosmos 2221 3.8 04:22:14 10° N 04:26:19 42° ENE 04:30:21 10° SSE
Lacrosse 5 rocket 3.6 04:23:22 11° WNW 04:26:32 19° NNW 04:29:55 10° NNE
Timation 2 Rocket 4.1 04:23:34 17° SSW 04:28:56 81° ESE 04:35:23 10° NNE
CZ-4B R/B 4.4 04:24:01 10° NNE 04:29:00 39° E 04:33:55 10° SSE
CZ-2D R/B 3.7 04:26:35 10° N 04:30:27 46° WNW 04:32:15 27° SW
USA 267 3.3 04:24:39 10° SSE 04:31:05 59° SW 04:37:32 10° NW
Landsat 4 3.6 04:28:35 10° SSE 04:32:19 86° W 04:36:05 10° NNW
EXPRESS MD2 3.1 04:26:54 10° WNW 04:32:19 75° SW 04:35:11 10° SE
Cosmos 1378 3.7 04:31:08 29° WSW 04:32:20 38° WNW 04:35:51 10° N
Cosmos 1000 Rocket 4.5 04:26:51 10° S 04:33:01 89° W 04:39:17 10° N
Cosmos 972 Rocket 4.3 04:29:39 10° NNW 04:36:00 89° ENE 04:41:35 10° SSE
Meteor 2-5 Rocket 4.1 04:32:45 21° SW 04:36:26 48° WNW 04:42:05 10° N
Cosmos 2100 Rocket 3.9 04:34:46 10° NNW 04:40:55 67° W 04:46:58 10° S
Cosmos 2173 Rocket 3.9 04:35:21 10° N 04:41:36 73° W 04:47:44 10° S
Cosmos 1707 4.2 04:42:22 18° W 04:43:19 20° WNW 04:46:15 10° NNW
MOZ.5/SAFIR/RUBIN 5/SL-8 4.4 04:41:46 15° SSW 04:45:00 34° W 04:49:16 10° NNW
Meteor 1-16 Rocket 4.5 04:40:16 10° NNW 04:45:16 42° W 04:50:14 10° SSW
MOS 1 Rocket 3.5 04:42:39 10° N 04:46:52 46° WNW 04:50:20 15° SW
ARIANE 5 R/B 4.1 04:43:32 10° NNW 04:47:20 21° WNW 04:49:58 14° W
Resurs 1-4 Rocket 3.7 04:45:13 10° NNW 04:48:53 20° WNW 04:51:36 14° W
In-Cosmos 22 4.0 04:46:09 10° S 04:51:27 85° W 04:56:46 10° N
Meteor 2-1 Rocket 4.2 04:45:49 10° NNW 04:51:31 72° W 04:57:15 10° S
Cosmos 1908 4.2 04:52:11 10° N 04:55:58 50° E 04:59:44 10° SSE
OE (NEXTSAT) 4.3 04:57:51 17° WSW 05:00:31 88° NNW 05:04:04 10° ENE
CZ-4B R/B 3.1 04:59:04 10° N 05:03:27 74° WNW 05:07:57 10° SSW
CZ-2D R/B 4.1 05:10:56 10° NW 05:12:57 12° WNW 05:14:59 10° W
Cosmos 2061 Rocket 4.5 05:12:14 10° NNW 05:17:56 40° W 05:23:36 10° SSW
MTI 3.7 05:14:48 10° S 05:18:02 78° W 05:21:16 10° NNW
Gbstr 26 Del rocket 4.3 05:11:43 10° NW 05:19:30 86° SW 05:25:58 10° SE
Cosmos 2360 4.2 05:14:18 10° NNW 05:20:01 72° WSW 05:25:41 10° SSE
Cosmos 2016 Rocket 4.2 05:14:07 10° NNW 05:20:08 50° W 05:26:12 10° SSW
Cosmos 2123 Rocket 4.1 05:15:55 10° SSW 05:22:09 66° W 05:28:26 10° N
Cosmos 1076 Rocket 3.5 05:18:04 10° SSW 05:22:15 60° W 05:26:28 10° N
Cosmos 1697 Rocket 3.4 05:17:20 10° NW 05:22:15 32° WSW 05:27:09 10° SSW
Okean-O 3.9 05:18:09 10° NNE 05:22:25 45° E 05:26:39 10° S
DELTA 2 R/B(2) 3.5 05:21:23 11° WSW 05:22:53 38° SSE 05:24:38 10° E
Okean 3 Rocket 4.1 05:19:01 10° SSW 05:23:09 40° WNW 05:27:21 10° N
Orbus 7S? 4.1 05:21:32 10° W 05:23:24 16° WSW 05:25:12 10° SSW
Cosmos 1110 Rocket 4.1 05:19:11 10° NNW 05:24:26 62° WSW 05:29:36 10° S
Aureole 2 4.1 05:24:47 10° NNW 05:27:45 87° ENE 05:30:51 10° SSE
